sat.trackr.live / text

‹ back to catalog

GAOFEN-9 02

NORAD 45625 · 2020-034B

PAYLOAD ACTIVE UNKNOWN

§ Identity

Operator
Country
PRC
Launch date
2020-05-31
Launch site
JSC
Launch vehicle
Mass (kg)
RCS (m²)

External: N2YO · Heavens-Above · Gunter

§ Orbital elements

Epoch: 2026-05-25T04:02:07.773792Z

Period
94.39 min
Inclination
97.5732°
Eccentricity
0.0013529
Mean motion
15.25661503 rev/d
Perigee alt
479.5 km
Apogee alt
498.1 km
Semi-major
6,866.9 km
B*
1.5543e-4
RAAN
302.2136°
Arg perigee
144.3488°
Mean anomaly
215.8656°
Rev number
33,265

§ Raw data

GAOFEN-9 021 45625U 20034B   26145.16814553  .00003889  00000+0  15543-3 0  99902 45625  97.5732 302.2136 0013529 144.3488 215.8656 15.25661503332652

JSON: /api/v1/satellites/45625 · /tle

For live sub-satellite position, see the globe view (requires WebGL).

§ Visibility from observer

Set your observer location to see the next 7 days of passes ≥ 10°. The values pass through the URL so the page stays shareable.

No JS? Fill the form by hand. The geolocation button needs JavaScript.